Terug naar catalogus

FENGYUN 1C DEB

ActiefSSO
NORAD 30836·DEBRIS·🇨🇳 China

Gelanceerd May 10, 1999 vanaf Taiyuan Satellite Launch Center

Loading…

Volgende Passages (komende 24 uur)

TLE

VersSource: Space-Track

Epoch: Sep 14, 2026, 01:12 UTC

1 30836U 99025AVW 26257.05005390  .00000320  00000-0  19649-3 0  9996
2 30836  98.7177 287.4913 0026463 180.7350 179.3787 14.12240131658897

Volg FENGYUN 1C DEB in realtime met AllMySat

Download on the App Store